STARLINK-3797 (52337 NORAD) Tracking and Keplerian Element Data

This shows tracking and keplerian element data for the satellite.

Feedback or suggestion? Click here.




ElementValue
Catalog52337
NameSTARLINK-3797
Epoch Orbit130
Epoch Day167.08334491
Epoch Year2022
RAAN207.3292
Inclination53.2174
Eccentricity0.0001631
Argument of Perigee40.857
Mean Anonmoly29.8591
Mean Motion15.31355043
Decay Rate-0.00715758
L11 52337U 22045G 22167.08334491 -.00715758 00000+0 -25258-1 0 9990
L22 52337 53.2174 207.3292 0001631 40.8570 29.8591 15.31355043 1302

Live tracking and technical data element details for STARLINK-3797 (NORAD 52337). STARLINK-3797 can be tracked NOW for your location showing map with azimuth and elevation plus other details from your city location.

Track the satellite on the map from your city or location and see movement details for azimuth, elevation, latitude, longitude, range, height, and movement on the map or in text.







IsCatalogInMostPopularTable: catalog: 52337, numindb: 13
Update: records affected: 1



GetName: 52337 STARLINK-3797

Hit Count: updated at: Sat, 25 Jun 2022 05:28:31 GMT